TimeCDT,TemperatureF,Dew PointF,Humidity,Sea Level PressureIn,VisibilityMPH,Wind Direction,Wind SpeedMPH,Gust SpeedMPH,PrecipitationIn,Events,Conditions,WindDirDegrees,DateUTC
12:35 AM,28.0,24.8,88,30.30,10.0,Calm,Calm,-,N/A,,Overcast,0,2012-10-26 05:35:00
12:55 AM,28.0,24.8,88,30.30,10.0,Calm,Calm,-,N/A,,Overcast,0,2012-10-26 05:55:00
1:15 AM,27.5,24.8,90,30.30,10.0,North,4.6,-,N/A,,Overcast,10,2012-10-26 06:15:00
1:35 AM,27.7,25.5,92,30.30,10.0,NE,3.5,-,N/A,,Overcast,50,2012-10-26 06:35:00
1:55 AM,27.5,26.1,94,30.30,7.0,NE,4.6,-,N/A,,Overcast,50,2012-10-26 06:55:00
2:15 AM,27.5,26.1,94,30.30,7.0,ENE,5.8,-,N/A,,Mostly Cloudy,60,2012-10-26 07:15:00
2:35 AM,27.5,25.9,94,30.31,7.0,NE,5.8,-,N/A,,Overcast,40,2012-10-26 07:35:00
2:55 AM,27.5,26.1,94,30.31,7.0,NNE,3.5,-,N/A,,Overcast,20,2012-10-26 07:55:00
3:15 AM,27.3,25.7,94,30.32,7.0,NNE,3.5,-,N/A,,Overcast,20,2012-10-26 08:15:00
3:35 AM,27.3,25.7,94,30.32,7.0,NNE,3.5,-,N/A,,Overcast,20,2012-10-26 08:35:00
3:55 AM,27.5,25.7,93,30.32,7.0,NNE,4.6,-,N/A,,Overcast,20,2012-10-26 08:55:00
4:15 AM,27.5,25.7,93,30.32,5.0,NNE,3.5,-,N/A,Snow,Light Snow,20,2012-10-26 09:15:00
4:35 AM,27.5,26.1,94,30.32,4.0,NNE,6.9,-,N/A,Snow,Light Snow,20,2012-10-26 09:35:00
4:55 AM,27.1,25.2,92,30.32,10.0,NNE,6.9,-,N/A,,Overcast,20,2012-10-26 09:55:00
5:15 AM,27.1,25.5,94,30.33,5.0,NNE,3.5,-,N/A,,Overcast,20,2012-10-26 10:15:00
5:35 AM,27.1,25.5,94,30.33,4.0,Calm,Calm,-,N/A,Snow,Light Snow,0,2012-10-26 10:35:00
6:15 AM,27.5,25.7,93,30.34,4.0,North,4.6,-,N/A,Snow,Light Snow,10,2012-10-26 11:15:00
6:35 AM,27.3,25.7,94,30.34,3.0,Calm,Calm,-,N/A,Snow,Light Snow,0,2012-10-26 11:35:00
6:55 AM,27.3,25.7,94,30.35,3.0,NNW,3.5,-,N/A,Snow,Light Snow,330,2012-10-26 11:55:00
7:15 AM,27.5,25.7,93,30.36,2.5,NNW,4.6,-,N/A,Snow,Light Snow,330,2012-10-26 12:15:00
7:55 AM,25.5,23.9,94,30.36,5.0,NNW,3.5,-,N/A,,Mostly Cloudy,330,2012-10-26 12:55:00
8:35 AM,23.7,22.1,94,30.38,5.0,NW,4.6,-,N/A,,Overcast,320,2012-10-26 13:35:00
8:55 AM,23.5,22.5,96,30.38,1.8,North,4.6,-,N/A,,Overcast,350,2012-10-26 13:55:00
9:15 AM,24.3,23.0,95,30.39,2.5,NNW,3.5,-,N/A,Snow,Light Snow,340,2012-10-26 14:15:00
9:35 AM,24.8,23.4,94,30.39,2.5,Calm,Calm,-,N/A,Snow,Light Snow,0,2012-10-26 14:35:00
10:15 AM,25.0,23.5,94,30.41,5.0,Calm,Calm,-,N/A,,Overcast,0,2012-10-26 15:15:00
10:35 AM,25.7,24.1,94,30.41,5.0,WNW,3.5,-,N/A,Snow,Light Snow,290,2012-10-26 15:35:00
10:55 AM,26.1,24.3,93,30.41,5.0,WNW,3.5,-,N/A,,Overcast,290,2012-10-26 15:55:00
11:15 AM,26.6,24.6,92,30.42,7.0,WNW,3.5,-,N/A,,Overcast,300,2012-10-26 16:15:00
11:35 AM,27.1,24.8,91,30.42,7.0,NW,3.5,-,N/A,,Overcast,310,2012-10-26 16:35:00
11:55 AM,28.2,25.7,90,30.42,10.0,West,4.6,-,N/A,,Overcast,280,2012-10-26 16:55:00
12:15 PM,28.8,25.7,88,30.41,10.0,WSW,8.1,-,N/A,,Overcast,250,2012-10-26 17:15:00
12:35 PM,29.1,25.7,87,30.41,10.0,WSW,6.9,-,N/A,,Overcast,240,2012-10-26 17:35:00
12:55 PM,29.8,26.2,86,30.40,10.0,SW,9.2,-,N/A,,Overcast,230,2012-10-26 17:55:00
1:15 PM,29.7,25.9,86,30.39,10.0,SW,11.5,-,N/A,,Overcast,220,2012-10-26 18:15:00
1:35 PM,30.9,26.6,84,30.38,10.0,SW,11.5,-,N/A,,Overcast,220,2012-10-26 18:35:00
1:55 PM,31.6,26.6,82,30.37,10.0,SW,11.5,-,N/A,,Overcast,220,2012-10-26 18:55:00
2:15 PM,32.0,26.2,79,30.36,10.0,SW,12.7,-,N/A,,Overcast,230,2012-10-26 19:15:00
2:35 PM,32.2,26.8,80,30.34,10.0,SW,11.5,-,N/A,,Overcast,220,2012-10-26 19:35:00
2:55 PM,32.7,26.2,77,30.34,10.0,SSW,11.5,-,N/A,,Mostly Cloudy,210,2012-10-26 19:55:00
3:15 PM,32.7,26.4,78,30.32,10.0,SW,10.4,-,N/A,,Overcast,230,2012-10-26 20:15:00
3:35 PM,33.6,27.0,77,30.31,10.0,WSW,10.4,-,N/A,,Mostly Cloudy,240,2012-10-26 20:35:00
3:55 PM,34.3,27.1,75,30.30,10.0,SSW,11.5,-,N/A,,Mostly Cloudy,210,2012-10-26 20:55:00
4:15 PM,33.3,27.0,78,30.30,10.0,SSW,11.5,-,N/A,,Mostly Cloudy,210,2012-10-26 21:15:00
4:35 PM,34.2,27.5,77,30.30,10.0,SSW,10.4,-,N/A,,Mostly Cloudy,210,2012-10-26 21:35:00
4:55 PM,33.8,26.4,74,30.28,10.0,SW,12.7,19.6,N/A,,Mostly Cloudy,220,2012-10-26 21:55:00
5:15 PM,33.3,26.4,76,30.28,10.0,SW,13.8,-,N/A,,Mostly Cloudy,220,2012-10-26 22:15:00
5:35 PM,34.2,26.1,72,30.27,10.0,SW,10.4,-,N/A,,Mostly Cloudy,230,2012-10-26 22:35:00
5:55 PM,33.4,26.6,76,30.27,10.0,SW,10.4,-,N/A,,Mostly Cloudy,220,2012-10-26 22:55:00
6:15 PM,32.9,26.4,77,30.27,10.0,SW,8.1,-,N/A,,Scattered Clouds,220,2012-10-26 23:15:00
6:35 PM,32.2,26.4,79,30.26,10.0,SSW,8.1,-,N/A,,Clear,210,2012-10-26 23:35:00
6:55 PM,31.1,26.4,83,30.26,10.0,SSW,5.8,-,N/A,,Clear,200,2012-10-26 23:55:00
7:15 PM,30.2,26.2,85,30.26,10.0,SSW,6.9,-,N/A,,Clear,200,2012-10-27 00:15:00
7:35 PM,28.9,25.7,88,30.25,10.0,SSW,8.1,-,N/A,,Clear,200,2012-10-27 00:35:00
7:55 PM,28.9,25.7,88,30.25,10.0,SSW,8.1,-,N/A,,Clear,200,2012-10-27 00:55:00
8:15 PM,29.1,25.7,87,30.25,10.0,SSW,6.9,-,N/A,,Clear,210,2012-10-27 01:15:00
8:35 PM,28.2,25.5,90,30.25,10.0,SSW,9.2,-,N/A,,Clear,210,2012-10-27 01:35:00
9:15 PM,28.0,25.3,90,30.24,10.0,SSW,8.1,-,N/A,,Clear,210,2012-10-27 02:15:00
9:35 PM,27.7,25.3,91,30.23,10.0,SSW,10.4,-,N/A,,Clear,200,2012-10-27 02:35:00
9:55 PM,27.5,25.2,91,30.22,10.0,South,8.1,-,N/A,,Clear,190,2012-10-27 02:55:00
10:15 PM,27.5,25.0,90,30.21,10.0,South,8.1,-,N/A,,Clear,180,2012-10-27 03:15:00
10:35 PM,27.5,25.0,90,30.21,10.0,South,8.1,-,N/A,,Clear,180,2012-10-27 03:35:00
10:55 PM,27.3,24.8,90,30.20,10.0,South,6.9,-,N/A,,Clear,180,2012-10-27 03:55:00
11:15 PM,26.8,24.6,92,30.20,10.0,South,9.2,-,N/A,,Clear,190,2012-10-27 04:15:00
11:35 PM,26.2,23.9,91,30.19,10.0,SSW,6.9,-,N/A,,Clear,200,2012-10-27 04:35:00
11:55 PM,26.2,24.3,92,30.19,10.0,SSW,8.1,-,N/A,,Clear,210,2012-10-27 04:55:00